Effingham, IL

7:14 PM CDT on October 19, 2017 (GMT -0500)
Effingham

Weather History for K1H2 - November, 2012

Change the Weather History Date:

Saturday, November 17, 2012

  Actual Average (KMTO) Record (KMTO)
Temperature  
Mean Temperature 41 °F -  
Max Temperature 55 °F 52 °F 75 °F (1958)
Min Temperature 27 °F 33 °F 3 °F (1959)
Degree Days  
Heating Degree Days 24    
Moisture  
Dew Point 31 °F    
Average Humidity 76    
Maximum Humidity 96    
Minimum Humidity 41    
Precipitation  
Precipitation 0.00 in - - ()
Sea Level Pressure  
Sea Level Pressure 30.47 in    
Wind  
Wind Speed 1 mph (ESE)    
Max Wind Speed 10 mph    
Max Gust Speed -    
Visibility 8 miles    
Events      
Averages and records for this station are not official NWS values.
T = Trace of Precipitation, MM = Missing Value Source: NWS Daily Summary

Daily Weather History Graph

Daily Weather History Graph

Search for Another Location

Airport or City:

Trip Planner

Search our weather history database for the weather conditions in past years. The results will help you decide how hot, cold, wet, or windy it might be!

Date:

Astronomy

Nov. 17, 2012 Rise Set
Actual Time 6:39 AM CST 4:38 PM CST
Civil Twilight 6:11 AM CST 5:06 PM CST
Nautical Twilight 5:38 AM CST 5:39 PM CST
Astronomical Twilight 5:07 AM CST 6:10 PM CST
Moon 10:24 AM CST (11/17) 8:47 PM CST (11/17)
Length of Visible Light 10h 55m
Length of Day
9h 58m
Waxing Crescent, 20% of the Moon is Illuminated
Nov 17
Waxing Crescent
Nov 20
First Quarter
Nov 28
Full
Dec 6
Last Quarter
Dec 13
New

Hourly Weather History & Observations

Time (CST) Temp. Windchill Dew Point Humidity Pressure Visibility Wind Dir Wind Speed Gust Speed Precip Events Conditions
12:15 AM 30.4 °F - 28.2 °F 92% 30.47 in 7.0 mi Calm Calm - N/A   Clear
12:35 AM 30.6 °F - 28.0 °F 90% 30.47 in 7.0 mi Calm Calm - N/A   Clear
12:55 AM 29.8 °F - 27.7 °F 92% 30.47 in 7.0 mi Calm Calm - N/A   Clear
1:15 AM 29.8 °F - 27.9 °F 92% 30.47 in 5.0 mi Calm Calm - N/A   Clear
1:35 AM 30.0 °F - 27.7 °F 91% 30.47 in 7.0 mi Calm Calm - N/A   Clear
1:55 AM 30.0 °F - 27.7 °F 91% 30.47 in 5.0 mi Calm Calm - N/A   Clear
2:15 AM 29.8 °F - 28.0 °F 93% 30.47 in 5.0 mi Calm Calm - N/A   Clear
2:35 AM 28.9 °F - 27.3 °F 94% 30.47 in 5.0 mi Calm Calm - N/A   Clear
2:55 AM 29.3 °F - 27.1 °F 92% 30.48 in 5.0 mi Calm Calm - N/A   Clear
3:15 AM 28.9 °F - 27.0 °F 92% 30.48 in 5.0 mi Calm Calm - N/A   Clear
3:35 AM 28.9 °F - 27.3 °F 94% 30.48 in 4.0 mi Calm Calm - N/A   Clear
3:55 AM 28.6 °F - 27.1 °F 94% 30.48 in 4.0 mi Calm Calm - N/A   Clear
4:15 AM 28.4 °F - 27.0 °F 94% 30.49 in 4.0 mi Calm Calm - N/A   Clear
4:35 AM 27.5 °F - 26.4 °F 96% 30.49 in 3.0 mi Calm Calm - N/A   Clear
4:55 AM 27.9 °F - 26.6 °F 95% 30.50 in 4.0 mi Calm Calm - N/A   Clear
5:15 AM 27.3 °F - 26.1 °F 95% 30.50 in 3.0 mi Calm Calm - N/A   Clear
5:35 AM 27.3 °F - 26.1 °F 95% 30.50 in 3.0 mi Calm Calm - N/A   Clear
5:55 AM 27.5 °F - 26.1 °F 94% 30.50 in 4.0 mi Calm Calm - N/A   Clear
6:15 AM 28.0 °F - 26.4 °F 94% 30.50 in 4.0 mi Calm Calm - N/A   Clear
6:35 AM 27.9 °F - 26.1 °F 93% 30.51 in 3.0 mi Calm Calm - N/A   Clear
6:55 AM 27.7 °F - 26.2 °F 94% 30.51 in 2.5 mi Calm Calm - N/A   Clear
7:15 AM 29.3 °F - 27.5 °F 93% 30.51 in 3.0 mi Calm Calm - N/A   Clear
7:35 AM 30.7 °F - 28.9 °F 93% 30.52 in 3.0 mi Calm Calm - N/A   Clear
7:55 AM 32.5 °F - 30.6 °F 92% 30.52 in 4.0 mi Calm Calm - N/A   Clear
8:15 AM 38.3 °F - 32.2 °F 79% 30.53 in 5.0 mi Calm Calm - N/A   Haze
8:35 AM 40.5 °F 38.4 °F 32.0 °F 72% 30.53 in 5.0 mi ENE 3.5 mph - N/A   Haze
8:55 AM 42.4 °F - 32.7 °F 68% 30.54 in 7.0 mi Calm Calm - N/A   Clear
9:15 AM 43.7 °F - 33.1 °F 66% 30.54 in 7.0 mi Calm Calm - N/A   Clear
9:35 AM 45.0 °F 43.5 °F 33.4 °F 64% 30.54 in 7.0 mi East 3.5 mph - N/A   Clear
9:55 AM 46.2 °F 43.3 °F 34.0 °F 62% 30.54 in 7.0 mi ESE 5.8 mph - N/A   Clear
10:15 AM 47.3 °F - 34.3 °F 61% 30.54 in 10.0 mi SE 3.5 mph - N/A   Clear
10:35 AM 48.2 °F - 34.5 °F 59% 30.53 in 10.0 mi ESE 4.6 mph - N/A   Clear
11:55 AM 52.0 °F - 32.9 °F 48% 30.49 in 10.0 mi SE 6.9 mph - N/A   Clear
12:15 PM 52.3 °F - 33.1 °F 48% 30.48 in 10.0 mi ESE 4.6 mph - N/A   Clear
12:35 PM 53.6 °F - 34.3 °F 48% 30.47 in 10.0 mi SE 8.1 mph - N/A   Clear
12:55 PM 54.0 °F - 33.6 °F 46% 30.47 in 10.0 mi SE 10.4 mph - N/A   Clear
1:15 PM 54.7 °F - 34.7 °F 47% 30.46 in 10.0 mi ESE 6.9 mph - N/A   Clear
1:35 PM 55.4 °F - 34.3 °F 45% 30.46 in 10.0 mi SE 8.1 mph - N/A   Clear
1:55 PM 55.6 °F - 34.2 °F 44% 30.45 in 10.0 mi ESE 4.6 mph - N/A   Clear
2:15 PM 55.6 °F - 33.3 °F 43% 30.45 in 10.0 mi Calm Calm - N/A   Clear
2:35 PM 55.6 °F - 32.4 °F 41% 30.44 in 10.0 mi ESE 3.5 mph - N/A   Clear
2:55 PM 55.4 °F - 31.8 °F 41% 30.44 in 10.0 mi ENE 3.5 mph - N/A   Clear
3:15 PM 54.9 °F - 32.2 °F 42% 30.44 in 10.0 mi East 5.8 mph - N/A   Clear
3:35 PM 54.5 °F - 32.9 °F 44% 30.44 in 10.0 mi East 5.8 mph - N/A   Clear
3:55 PM 53.4 °F - 33.3 °F 46% 30.44 in 10.0 mi East 4.6 mph - N/A   Clear
4:15 PM 52.3 °F - 33.1 °F 48% 30.44 in 10.0 mi East 3.5 mph - N/A   Clear
4:35 PM 50.4 °F - 33.3 °F 52% 30.43 in 10.0 mi East 4.6 mph - N/A   Clear
4:55 PM 48.6 °F - 33.6 °F 56% 30.43 in 10.0 mi Calm Calm - N/A   Clear
5:15 PM 46.4 °F 44.3 °F 33.6 °F 61% 30.42 in 10.0 mi East 4.6 mph - N/A   Clear
5:35 PM 43.0 °F - 32.4 °F 66% 30.43 in 10.0 mi Calm Calm - N/A   Clear
5:55 PM 40.5 °F - 32.5 °F 73% 30.43 in 10.0 mi Calm Calm - N/A   Clear
6:15 PM 39.7 °F - 32.0 °F 74% 30.43 in 10.0 mi Calm Calm - N/A   Clear
6:35 PM 38.8 °F - 32.0 °F 76% 30.43 in 10.0 mi Calm Calm - N/A   Clear
6:55 PM 37.6 °F - 32.2 °F 81% 30.43 in 10.0 mi Calm Calm - N/A   Clear
7:15 PM 37.0 °F - 32.0 °F 82% 30.43 in 10.0 mi Calm Calm - N/A   Clear
7:35 PM 37.8 °F - 32.0 °F 80% 30.43 in 10.0 mi Calm Calm - N/A   Clear
7:55 PM 34.9 °F - 31.3 °F 87% 30.43 in 10.0 mi Calm Calm - N/A   Clear
8:15 PM 36.3 °F - 32.0 °F 84% 30.43 in 10.0 mi Calm Calm - N/A   Clear
8:35 PM 33.8 °F - 30.2 °F 87% 30.44 in 10.0 mi Calm Calm - N/A   Clear
8:55 PM 34.2 °F - 31.5 °F 90% 30.44 in 10.0 mi Calm Calm - N/A   Clear
9:15 PM 34.2 °F - 31.5 °F 90% 30.44 in 10.0 mi Calm Calm - N/A   Clear
9:35 PM 34.0 °F - 32.0 °F 92% 30.44 in 7.0 mi Calm Calm - N/A   Clear
9:55 PM 32.9 °F - 30.4 °F 90% 30.44 in 10.0 mi Calm Calm - N/A   Clear
10:15 PM 32.4 °F - 30.6 °F 93% 30.43 in 7.0 mi Calm Calm - N/A   Clear
10:35 PM 32.2 °F - 30.4 °F 93% 30.43 in 10.0 mi Calm Calm - N/A   Clear
10:55 PM 32.0 °F - 30.2 °F 93% 30.43 in 7.0 mi Calm Calm - N/A   Clear
11:15 PM 32.0 °F - 30.0 °F 92% 30.43 in 7.0 mi Calm Calm - N/A   Clear
11:35 PM 32.2 °F - 29.8 °F 91% 30.43 in 7.0 mi Calm Calm - N/A   Clear
11:55 PM 31.5 °F - 29.3 °F 92% 30.43 in 7.0 mi Calm Calm - N/A   Clear